Regional Weather Roundup
Issued by NWS

Home | Current Version | Previous Version | Graphics & Text | Print | Product List | Glossary On
Versions: 1 2 3 4 5 6 7 8 9 10 11 12 13 14 15 16 17 18 19 20 21 22 23 24 25 26 27
000
ASUS45 KBOU 221907
RWRCO

WEATHER ROUNDUP FOR COLORADO
NATIONAL WEATHER SERVICE DENVER/BOULDER CO
100 PM MDT SAT JUL 22 2017

NOTE: "FAIR" INDICATES FEW OR NO CLOUDS BELOW 12000 FEET WITH NO
SIGNIFICANT WEATHER AND/OR OBSTRUCTIONS TO VISIBILITY.

COZ001>005-013-030-031-222000-
...NORTHWEST COLORADO...

CITY           SKY/WX    TMP DP  RH WIND       PRES   REMARKS
CRAIG          FAIR      80  47  31 W5        30.29F
HAYDEN         FAIR      79  45  29 CALM      30.31F
MEEKER         FAIR      81  51  35 S6        30.28F
RABBIT EARS PA CLOUDY    61  45  55 SE3       30.62S
STEAMBOAT SPGS PTSUNNY   76  51  41 CALM      30.32F
WALDEN         FAIR      75  36  23 NW14G20   30.43F
$$

COZ006>008-011-222000-
...WEST CENTRAL VALLEYS...

CITY           SKY/WX    TMP DP  RH WIND       PRES   REMARKS
GRAND JUNCTION FAIR      83  59  44 VRB5      30.17F
MONTROSE       FAIR      77  56  48 SW7       30.25F
EAGLE          SUNNY     75  55  50 W6        30.32F
RIFLE          FAIR      82  54  37 NW5       30.22F
DELTA          FAIR      84  57  39 SW6       30.21F
NUCLA          FAIR      82  48  30 N5        30.26F
$$

COZ017>023-064>068-222000-
...SOUTHWEST COLORADO...

CITY           SKY/WX    TMP DP  RH WIND       PRES   REMARKS
DURANGO        FAIR      79  51  37 VRB5      30.25F
CORTEZ         FAIR      78  55  44 S6        30.22F
PAGOSA SPRINGS FAIR      77  43  30 SW5       30.33F
TELLURIDE      TSTM      64  52  64 CALM      30.49S
WOLF CREEK PAS TSTM      43  41  93 N8        30.72R VSB 3/4
$$

COZ009-010-012-014-032>034-037-058>063-222000-
...CENTRAL COLORADO...

CITY           SKY/WX    TMP DP  RH WIND       PRES   REMARKS
ASPEN          FAIR      73  49  42 CALM      30.37F
BUENA VISTA    FAIR      73  45  36 SE7       30.38F
COPPER MTN     FAIR      64  39  39 N6        30.71F
BERTHOUD PASS  PTSUNNY   46  32  57 SE12G21   30.75S
COTTONWOOD PAS FAIR      72  36  26 E7        30.54F THUNDER
GUNNISON       FAIR      71  52  50 CALM      30.38F
KREMMLING      FAIR      81  45  28 NW6       30.37F
LEADVILLE      FAIR      68  38  33 VRB6      30.49F
MONARCH PASS   CLOUDY    54  36  50 E15       30.79S THUNDER
SALIDA         PTSUNNY   75  41  29 CALM      30.43F
SUNLIGHT       FAIR      63  41  45 NE6       30.65F
WILKERSON PASS FAIR      61  41  48 NE3       30.67F
$$

COZ069>075-222000-
...SAN LUIS VALLEY/SANGRE DE CRISTO MOUNTAINS...

CITY           SKY/WX    TMP DP  RH WIND       PRES   REMARKS
ALAMOSA        FAIR      81  50  33 N8        30.32F
DEL NORTE      FAIR      75  48  37 SE8       30.38S THUNDER
LA VETA PASS   NOT AVBL
SAGUACHE         N/A    N/A N/A N/A MISG        N/A
$$

COZ035-036-038>040-222000-
...NORTHERN COLORADO FRONT RANGE...

CITY           SKY/WX    TMP DP  RH WIND       PRES   REMARKS
DENVER INTL AP FAIR      86  50  28 SE10      30.19F
DMNS CITY PARK   N/A     86  46  24 NE3G13    30.19S
AURORA         MOSUNNY   82  50  32 N7        30.21F
FRONT RANGE AP FAIR      88  50  27 E10G18    30.21F
ERIE MUNI ARPT FAIR      84  47  27 N8        30.19S
BOULDER MUN AP FAIR      86  46  25 SE3       30.20S
CENTENNIAL     FAIR      82  47  29 N9        30.23F
BROOMFIELD     FAIR      86  46  25 N9        30.23S
FORT COLLINS   FAIR      85  53  33 VRB5G17   30.19R
LONGMONT       FAIR      85  50  29 SE5       30.21R
$$

COZ041-046-047-076>085-087-088-222000-
...PIKES PEAK/PALMER DIVIDE AND SOUTHERN FOOTHILLS...

CITY           SKY/WX    TMP DP  RH WIND       PRES   REMARKS
COLO. SPRINGS  PTSUNNY   79  56  45 VRB5      30.28F
A. F. ACADEMY  FAIR      80  47  31 N6G20     30.27F
SCHRIEVER AFB  PTSUNNY   73  54  51 NE8       30.28F
CHEYENNE MTN   PTSUNNY   74  54  49 SE3       30.27F
ELLICOTT       LGT RAIN N/A N/A N/A VRB3      30.26F
FALCON           N/A     75  54  47 E5        30.34S
FORT CARSON    FAIR      73  57  57 NW3       30.24F
LIMON          FAIR      79  53  40 CALM      30.22F
MONUMENT HILL  FAIR      73  48  40 N6        30.34F
CANON CITY     SUNNY     79  57  47 MISG      30.22S
WALSENBURG     FAIR      86  54  32 NE12      30.24F
TRINIDAD       PTSUNNY   87  45  23 E12G20    30.20F
$$

COZ042>045-048>051-090-091-222000-
...NORTHEAST COLORADO...

CITY           SKY/WX    TMP DP  RH WIND       PRES   REMARKS
GREELEY ARPT   FAIR      87  56  34 SE12      30.16F
AKRON          FAIR      82  55  39 SE8       30.18F
BURLINGTON     FAIR      83  56  39 NE10      30.13F
WRAY           NOT AVBL
YUMA           FAIR      77  52  41 N8        30.15S
STERLING       FAIR      81  63  54 SE5       30.12F
HOLYOKE        FAIR      84  57  39 E5        30.13F
FORT MORGAN    FAIR      85  50  29 SE8       30.17F
$$

COZ086-089-092>099-222000-
...SOUTHEAST COLORADO...

CITY           SKY/WX    TMP DP  RH WIND       PRES   REMARKS
PUEBLO         FAIR      88  50  27 NW9       30.14F
LA JUNTA       FAIR      87  57  35 NE13      30.12F
LAMAR          FAIR      90  58  33 N13       30.05F
SPRINGFIELD      N/A     89  55  31 N12G21    30.09F
$$




USA.gov is the U.S. government's official web portal to all federal, state and local government web resources and services.